Roseburg, OR

6:10 AM PDT on May 25, 2018 (GMT -0700)
Roseburg Regional

Weather History for KRBG - November, 2011

Change the Weather History Date:

Tuesday, November 29, 2011

  Actual Average Record
Temperature  
Mean Temperature 46 °F 44 °F  
Max Temperature 49 °F 49 °F 68 °F (1941)
Min Temperature 42 °F 38 °F 23 °F (1952)
Degree Days  
Heating Degree Days 19 21  
Month to date heating degree days 526 522  
Since 1 July heating degree days 840 908  
Cooling Degree Days 0 0  
Month to date cooling degree days 0 0  
Year to date cooling degree days 446 480  
Moisture  
Dew Point 42 °F    
Average Humidity 82    
Maximum Humidity 92    
Minimum Humidity 71    
Precipitation  
Precipitation 0.01 in 0.29 in 1.60 in (2012)
Month to date precipitation 4.03 6.17  
Year to date precipitation 27.64 29.45  
Sea Level Pressure  
Sea Level Pressure 30.36 in    
Wind  
Wind Speed 2 mph (North)    
Max Wind Speed 12 mph    
Max Gust Speed 15 mph    
Visibility 8 miles    
Events Rain    
T = Trace of Precipitation, MM = Missing Value Source: NWS Daily Summary

Daily Weather History Graph

Daily Weather History Graph

Search for Another Location

Airport or City:

Astronomy

Nov. 29, 2011 Rise Set
Actual Time 7:23 AM PST 4:39 PM PST
Civil Twilight 6:51 AM PST 5:11 PM PST
Nautical Twilight 6:16 AM PST 5:47 PM PST
Astronomical Twilight 5:41 AM PST 6:21 PM PST
Moon 11:10 AM PST (11/29) 9:43 PM PST (11/29)
Length of Visible Light 10h 20m
Length of Day
9h 16m
Waxing Crescent, 25% of the Moon is Illuminated
Nov 29
Waxing Crescent
Dec 2
First Quarter
Dec 10
Full
Dec 17
Last Quarter
Dec 24
New

Hourly Weather History & Observations

Time (PST) Temp. Windchill Dew Point Humidity Pressure Visibility Wind Dir Wind Speed Gust Speed Precip Events Conditions
12:22 AM 44.6 °F 42.2 °F 42.8 °F 93% 30.36 in 2.5 mi North 4.6 mph - N/A   Overcast
12:53 AM 44.1 °F 41.5 °F 43.0 °F 96% 30.36 in 2.5 mi North 4.6 mph - N/A   Overcast
1:02 AM 44.6 °F 43.1 °F 42.8 °F 93% 30.35 in 3.0 mi North 3.5 mph - N/A   Overcast
1:53 AM 44.1 °F 42.5 °F 43.0 °F 96% 30.37 in 3.0 mi NNW 3.5 mph - N/A   Overcast
2:15 AM 44.6 °F 42.2 °F 42.8 °F 93% 30.36 in 5.0 mi North 4.6 mph - N/A   Overcast
2:53 AM 44.1 °F - 43.0 °F 96% 30.36 in 8.0 mi Calm Calm - N/A   Overcast
3:53 AM 44.1 °F - 43.0 °F 96% 30.35 in 9.0 mi Calm Calm - N/A   Overcast
4:33 AM 44.6 °F - 42.8 °F 93% 30.33 in 5.0 mi Calm Calm - N/A   Overcast
4:53 AM 44.1 °F - 43.0 °F 96% 30.34 in 4.0 mi Calm Calm - N/A   Overcast
5:53 AM 45.0 °F - 43.0 °F 93% 30.34 in 5.0 mi Calm Calm - N/A   Overcast
6:53 AM 45.0 °F - 43.0 °F 93% 30.36 in 5.0 mi Calm Calm - N/A   Overcast
7:53 AM 45.0 °F - 43.0 °F 93% 30.35 in 4.0 mi Calm Calm - N/A   Overcast
8:39 AM 44.6 °F - 42.8 °F 93% 30.35 in 6.0 mi Calm Calm - N/A   Overcast
8:53 AM 46.0 °F - 43.0 °F 89% 30.37 in 7.0 mi Calm Calm - N/A   Overcast
9:40 AM 46.4 °F - 42.8 °F 87% 30.36 in 8.0 mi Calm Calm - N/A   Overcast
9:53 AM 46.0 °F - 43.0 °F 89% 30.38 in 8.0 mi Calm Calm - N/A   Overcast
10:28 AM 46.4 °F 45.2 °F 42.8 °F 87% 30.37 in 10.0 mi NNW 3.5 mph - N/A   Overcast
10:53 AM 46.9 °F - 43.0 °F 86% 30.38 in 10.0 mi Calm Calm - N/A   Overcast
11:53 AM 46.9 °F - 43.0 °F 86% 30.35 in 10.0 mi Variable 4.6 mph - N/A   Overcast
12:53 PM 48.0 °F - 43.0 °F 83% 30.33 in 10.0 mi Calm Calm - N/A   Overcast
1:53 PM 48.9 °F - 43.0 °F 80% 30.30 in 10.0 mi Calm Calm - N/A   Overcast
2:53 PM 48.9 °F - 43.0 °F 80% 30.34 in 10.0 mi North 5.8 mph - N/A   Overcast
3:39 PM 48.2 °F - 42.8 °F 82% 30.34 in 10.0 mi North 4.6 mph - N/A   Overcast
3:53 PM 48.9 °F - 43.0 °F 80% 30.36 in 10.0 mi North 5.8 mph - N/A   Overcast
4:09 PM 48.2 °F - 42.8 °F 82% 30.36 in 10.0 mi NNW 8.1 mph - N/A   Overcast
4:53 PM 46.9 °F - 37.9 °F 71% 30.40 in 10.0 mi NNW 8.1 mph - N/A   Overcast
5:53 PM 46.9 °F - 37.9 °F 71% 30.41 in 10.0 mi Calm Calm - N/A   Overcast
6:53 PM 45.0 °F - 37.0 °F 74% 30.40 in 10.0 mi Calm Calm - N/A   Clear
8:53 PM 42.1 °F 38.4 °F 37.0 °F 82% 30.39 in 10.0 mi SE 5.8 mph - N/A   Overcast
9:53 PM 43.0 °F - 37.9 °F 82% 30.41 in 10.0 mi Calm Calm - N/A   Overcast
10:53 PM 43.0 °F - 37.9 °F 82% 30.42 in 10.0 mi Calm Calm - 0.00 in Rain Light Rain
11:53 PM 42.1 °F 37.7 °F 39.0 °F 89% 30.42 in 8.0 mi SE 6.9 mph - 0.01 in Rain Light Rain